FW4626 Weather Reports


time (UTC)temp
C
wind
direction
speed
KPH
gust
KPH
rain 1hr
cm
rain 24hr
cm
rain mn
cm
humidity
%
barometer
mb
20260906071501 17 49 11.3 17.7 0.00 0.10 0.00 94 1010.3
20260906070058 17 13 11.3 16.1 0.00 0.10 0.00 95 1010.2
20260906064555 17 44 6.4 11.3 0.00 0.10 0.00 95 1010.3
20260906063050 17 347 6.4 9.7 0.00 0.10 0.00 95 1010.9
20260906061548 17 44 6.4 9.7 0.00 0.10 0.00 95 1010.9
20260906060046 17 48 0.0 6.4 0.00 0.10 0.00 95 1011.1
20260906054549 17 267 3.2 11.3 0.00 0.10 0.00 95 1011.2
20260906053042 17 347 6.4 9.7 0.00 0.10 0.00 95 1011.0
20260906051548 17 347 8.0 11.3 0.00 0.10 0.00 95 1011.2
20260906050058 17 347 6.4 12.9 0.00 0.10 0.00 95 1011.2
20260906044535 17 46 9.7 14.5 0.00 0.10 0.00 94 1011.2
20260906043033 17 41 9.7 16.1 0.00 0.10 0.00 94 1011.1
20260906041529 17 347 8.0 14.5 0.00 0.10 0.00 95 1011.1
20260906040024 17 43 6.4 12.9 0.00 0.10 0.00 95 1011.3
20260906034536 17 33 11.3 16.1 0.00 0.10 0.10 96 1011.4
20260906033025 17 40 11.3 16.1 0.00 0.10 0.10 96 1011.4
20260906031520 17 47 11.3 16.1 0.00 0.10 0.10 96 1011.4
20260906030016 17 43 16.1 22.5 0.00 0.10 0.10 96 1011.4
20260906024514 17 46 19.3 25.7 0.00 0.10 0.10 96 1011.1
20260906023012 17 35 19.3 24.1 0.00 0.10 0.10 95 1011.1
20260906021509 17 39 12.9 19.3 0.00 0.10 0.10 93 1011.2
20260906020009 17 340 11.3 17.7 0.00 0.10 0.10 93 1011.2
20260906014509 17 44 12.9 20.9 0.00 0.10 0.10 92 1011.2
20260906013009 17 41 14.5 20.9 0.00 0.10 0.10 93 1011.0
20260906011503 17 35 12.9 20.9 0.00 0.10 0.10 93 1010.7
20260906010001 17 46 14.5 20.9 0.00 0.10 0.10 93 1010.4
20260906004600 17 42 16.1 22.5 0.00 0.10 0.10 91 1010.2
20260906003107 17 32 20.9 27.4 0.00 0.10 0.10 90 1009.7
20260906001557 17 36 17.7 25.7 0.00 0.10 0.10 89 1009.7
20260906000055 17 42 19.3 29.0 0.00 0.10 0.10 89 1009.6
20260905234601 18 45 19.3 27.4 0.00 0.10 0.10 87 1009.6
20260905233050 18 27 19.3 25.7 0.00 0.10 0.10 87 1009.7
20260905231548 18 42 19.3 27.4 0.00 0.10 0.10 87 1009.5
20260905230050 19 41 20.9 30.6 0.00 0.10 0.10 87 1009.3
20260905224545 19 39 20.9 33.8 0.00 0.10 0.10 88 1009.3
20260905223044 20 30 24.1 35.4 0.00 0.10 0.10 89 1009.2
20260905221538 20 39 20.9 32.2 0.00 0.10 0.10 89 1009.3
20260905220039 20 13 19.3 32.2 0.00 0.10 0.10 87 1009.7
20260905214533 20 44 19.3 27.4 0.00 0.10 0.10 87 1009.7
20260905213030 20 44 20.9 32.2 0.00 0.10 0.10 86 1009.7
20260905211527 21 33 19.3 27.4 0.00 0.10 0.10 84 1009.7
20260905210031 21 42 14.5 24.1 0.00 0.10 0.10 85 1009.9
20260905204522 21 259 14.5 22.5 0.00 0.10 0.10 86 1010.0
20260905203020 20 34 16.1 24.1 0.00 0.10 0.10 85 1009.9
20260905201524 20 37 16.1 27.4 0.00 0.10 0.10 83 1009.9
20260905200028 20 52 14.5 25.7 0.00 0.10 0.10 80 1009.8
20260905194515 20 41 17.7 24.1 0.00 0.10 0.10 81 1010.0
20260905193025 19 46 14.5 24.1 0.00 0.10 0.10 81 1009.9
20260905191509 18 44 14.5 25.7 0.00 0.10 0.10 86 1009.9
20260905190013 18 6 19.3 30.6 0.00 0.10 0.10 88 1009.9
20260905184512 17 48 19.3 29.0 0.00 0.10 0.10 90 1010.0
20260905183103 16 36 17.7 25.7 0.03 0.10 0.10 93 1010.1
20260905181558 16 42 14.5 20.9 0.03 0.10 0.10 95 1010.7
20260905180055 16 40 17.7 22.5 0.03 0.10 0.10 95 1010.8
20260905174558 15 39 8.0 16.1 0.10 0.10 0.10 97 1011.7
20260905173102 15 32 20.9 27.4 0.08 0.08 0.08 97 1012.1
20260905171549 15 31 20.9 25.7 0.08 0.08 0.08 96 1012.2
20260905170048 15 16 22.5 30.6 0.08 0.08 0.08 96 1012.2
20260905164538 18 34 35.4 49.9 0.00 0.00 0.00 92 1012.1
20260905163035 20 324 20.9 29.0 0.00 0.00 0.00 93 1012.1
20260905161533 21 32 16.1 22.5 0.00 0.00 0.00 91 1012.1
20260905160046 21 274 17.7 35.4 0.00 0.00 0.00 91 1011.9
20260905154528 20 48 19.3 29.0 0.00 0.00 0.00 93 1012.1
20260905153025 20 36 24.1 33.8 0.00 0.00 0.00 92 1012.1
20260905151524 21 41 22.5 29.0 0.00 0.00 0.00 92 1011.6
20260905150026 20 46 20.9 29.0 0.00 0.00 0.00 93 1011.7
20260905144537 20 43 17.7 25.7 0.00 0.00 0.00 94 1011.5
20260905143021 20 39 17.7 27.4 0.00 0.00 0.00 94 1011.7
20260905141520 20 40 17.7 25.7 0.00 0.00 0.00 93 1011.8
20260905140012 20 46 19.3 27.4 0.00 0.00 0.00 92 1011.6
20260905134615 20 30 19.3 29.0 0.00 0.00 0.00 92 1011.5
20260905133008 20 32 19.3 27.4 0.00 0.00 0.00 93 1011.4
20260905131503 20 44 20.9 30.6 0.00 0.00 0.00 93 1011.8
20260905130002 20 34 20.9 33.8 0.00 0.00 0.00 93 1011.7
20260905124559 20 46 17.7 25.7 0.00 0.00 0.00 93 1011.7
20260905123156 19 30 16.1 25.7 0.00 0.00 0.00 94 1011.7
20260905121554 19 45 17.7 25.7 0.00 0.00 0.00 94 1011.7
20260905120056 19 39 17.7 25.7 0.00 0.00 0.00 94 1011.5
20260905114623 18 46 17.7 24.1 0.00 0.00 0.00 94 1011.2
20260905113046 18 46 16.1 24.1 0.00 0.00 0.00 94 1011.2
20260905111550 18 40 17.7 24.1 0.00 0.00 0.00 95 1011.1
20260905110040 18 41 17.7 25.7 0.00 0.00 0.00 94 1011.1
20260905104537 18 67 16.1 25.7 0.00 0.00 0.00 94 1010.9
20260905103036 18 47 17.7 24.1 0.00 0.00 0.00 94 1010.9
20260905101534 18 40 16.1 24.1 0.00 0.00 0.00 94 1010.9
20260905100030 18 40 16.1 22.5 0.00 0.00 0.00 94 1010.8
20260905094525 19 39 14.5 22.5 0.00 0.00 0.00 94 1010.8
20260905093025 19 23 12.9 19.3 0.00 0.00 0.00 94 1010.7
20260905091519 19 44 12.9 19.3 0.00 0.00 0.00 94 1010.8
20260905090016 19 30 12.9 19.3 0.00 0.00 0.00 94 1010.8
20260905084516 19 31 12.9 17.7 0.00 0.00 0.00 94 1011.0
20260905083010 19 48 11.3 17.7 0.00 0.00 0.00 94 1011.2
20260905081506 19 35 11.3 17.7 0.00 0.00 0.00 93 1011.2
20260905080002 19 45 11.3 14.5 0.00 0.00 0.00 93 1011.6
20260905074603 19 46 9.7 12.9 0.00 0.00 0.00 93 1011.7
20260905073106 19 14 9.7 12.9 0.00 0.00 0.00 93 1011.7